Weather History for Cambridge, MD

Change the Weather History Date:

Wednesday, March 20, 2013

  Actual Average (KESN) Record (KESN)
Temperature  
Mean Temperature 43 °F -  
Max Temperature 51 °F 56 °F 75 °F (1976)
Min Temperature 35 °F 35 °F 18 °F (1949)
Degree Days  
Heating Degree Days 22    
Moisture  
Dew Point 22 °F    
Average Humidity 43    
Maximum Humidity 75    
Minimum Humidity 26    
Precipitation  
Precipitation 0.00 in - - ()
Sea Level Pressure  
Sea Level Pressure 29.91 in    
Wind  
Wind Speed 9 mph (West)    
Max Wind Speed 14 mph    
Max Gust Speed 23 mph    
Visibility 10 miles    
Events      
Averages and records for this station are not official NWS values.
T = Trace of Precipitation, MM = Missing Value Source: NWS Daily Summary

Daily Weather History Graph

Daily Weather History Graph

Search for Another Location

Airport:

Trip Planner

Search our weather history database for the weather conditions in past years. The results will help you decide how hot, cold, wet, or windy it might be!

Date:

Astronomy

Mar. 20, 2013 Rise Set
Actual Time 7:07 AM EDT 7:16 PM EDT
Civil Twilight 6:40 AM EDT 7:42 PM EDT
Nautical Twilight 6:09 AM EDT 8:13 PM EDT
Astronomical Twilight 5:38 AM EDT 8:45 PM EDT
Moon 12:53 PM EDT (3/20) 2:41 AM EDT (3/20)
Length of Visible Light 13h 01m
Length of Day
12h 09m
First Quarter, 59% of the Moon is Illuminated
Mar 20
First Quarter
Mar 27
Full
Apr 3
Last Quarter
Apr 10
New
Apr 18
First Quarter

Hourly Weather History & Observations

Time (EDT) Temp. Windchill Dew Point Humidity Pressure Visibility Wind Dir Wind Speed Gust Speed Precip Events Conditions
12:03 AM 46.4 °F 41.5 °F 19.4 °F 34% 29.90 in 10.0 mi WNW 10.4 mph 16.1 mph N/A   Clear
12:23 AM 46.4 °F 40.7 °F 19.4 °F 34% 29.91 in 10.0 mi WNW 12.7 mph 19.6 mph N/A   Clear
12:43 AM 44.6 °F 39.2 °F 17.6 °F 34% 29.92 in 10.0 mi WNW 10.4 mph 17.3 mph N/A   Clear
1:03 AM 44.6 °F 39.7 °F 14.0 °F 29% 29.93 in 10.0 mi WNW 9.2 mph 18.4 mph N/A   Clear
1:23 AM 44.6 °F 38.8 °F 14.0 °F 29% 29.93 in 10.0 mi WNW 11.5 mph 19.6 mph N/A   Clear
1:43 AM 42.8 °F 37.5 °F 14.0 °F 31% 29.94 in 10.0 mi WNW 9.2 mph 18.4 mph N/A   Clear
2:03 AM 42.8 °F 37.5 °F 21.2 °F 42% 29.96 in 10.0 mi North 9.2 mph 17.3 mph N/A   Clear
2:23 AM 41.0 °F 37.1 °F 24.8 °F 53% 29.96 in 10.0 mi North 5.8 mph - N/A   Clear
2:43 AM 39.2 °F 35.0 °F 24.8 °F 56% 29.97 in 10.0 mi North 5.8 mph - N/A   Clear
3:03 AM 37.4 °F - 26.6 °F 65% 29.97 in 10.0 mi Calm Calm - N/A   Clear
3:24 AM 35.6 °F - 26.6 °F 70% 29.97 in 10.0 mi Calm Calm - N/A   Clear
4:04 AM 41.0 °F 36.4 °F 21.2 °F 45% 29.95 in 10.0 mi NW 6.9 mph - N/A   Clear
4:24 AM 39.2 °F 35.9 °F 19.4 °F 45% 29.95 in 10.0 mi NW 4.6 mph - N/A   Clear
4:44 AM 39.2 °F 32.5 °F 19.4 °F 45% 29.95 in 10.0 mi NW 10.4 mph - N/A   Clear
5:04 AM 39.2 °F 32.5 °F 17.6 °F 42% 29.95 in 10.0 mi NW 10.4 mph 16.1 mph N/A   Clear
5:24 AM 39.2 °F 34.2 °F 19.4 °F 45% 29.96 in 10.0 mi NW 6.9 mph - N/A   Clear
5:44 AM 37.4 °F 33.8 °F 21.2 °F 52% 29.97 in 10.0 mi NW 4.6 mph - N/A   Clear
6:04 AM 37.4 °F 32.8 °F 19.4 °F 48% 29.97 in 10.0 mi NW 5.8 mph - N/A   Clear
6:24 AM 35.6 °F 31.7 °F 19.4 °F 52% 29.98 in 10.0 mi NW 4.6 mph - N/A   Clear
6:44 AM 35.6 °F 32.8 °F 21.2 °F 56% 29.98 in 10.0 mi WNW 3.5 mph - N/A   Clear
7:24 AM 35.6 °F 32.8 °F 21.2 °F 56% 29.99 in 10.0 mi WNW 3.5 mph - N/A   Clear
8:04 AM 39.2 °F 35.0 °F 17.6 °F 42% 29.99 in 10.0 mi WNW 5.8 mph - N/A   Clear
8:24 AM 39.2 °F 35.9 °F 17.6 °F 42% 30.00 in 10.0 mi WNW 4.6 mph - N/A   Clear
8:44 AM 41.0 °F 34.3 °F 17.6 °F 39% 30.00 in 10.0 mi WNW 11.5 mph - N/A   Clear
9:04 AM 41.0 °F 34.3 °F 17.6 °F 39% 30.00 in 10.0 mi WNW 11.5 mph 18.4 mph N/A   Clear
9:24 AM 41.0 °F 35.8 °F 17.6 °F 39% 30.00 in 10.0 mi WNW 8.1 mph 17.3 mph N/A   Clear
9:44 AM 42.8 °F 37.5 °F 15.8 °F 34% 30.01 in 10.0 mi WNW 9.2 mph 19.6 mph N/A   Clear
10:04 AM 42.8 °F 37.0 °F 15.8 °F 34% 30.01 in 10.0 mi WNW 10.4 mph 16.1 mph N/A   Clear
10:24 AM 42.8 °F 37.0 °F 15.8 °F 34% 30.00 in 10.0 mi WNW 10.4 mph 17.3 mph N/A   Clear
10:44 AM 42.8 °F 39.3 °F 15.8 °F 34% 30.01 in 10.0 mi West 5.8 mph - N/A   Clear
11:04 AM 44.6 °F 38.4 °F 15.8 °F 31% 30.00 in 10.0 mi WSW 12.7 mph 16.1 mph N/A   Clear
11:24 AM 44.6 °F 39.2 °F 14.0 °F 29% 30.00 in 10.0 mi West 10.4 mph 19.6 mph N/A   Clear
11:45 AM 44.6 °F 38.4 °F 14.0 °F 29% 30.00 in 10.0 mi West 12.7 mph 17.3 mph N/A   Clear
12:05 PM 44.6 °F 39.2 °F 15.8 °F 31% 29.99 in 10.0 mi WNW 10.4 mph 18.4 mph N/A   Clear
12:25 PM 46.4 °F 41.1 °F 17.6 °F 32% 29.98 in 10.0 mi WSW 11.5 mph 19.6 mph N/A   Clear
12:45 PM 48.2 °F - 19.4 °F 32% 29.97 in 10.0 mi West 13.8 mph 19.6 mph N/A   Clear
1:05 PM 50.0 °F - 19.4 °F 30% 29.96 in 10.0 mi WNW 9.2 mph - N/A   Clear
1:25 PM 50.0 °F - 19.4 °F 30% 29.96 in 10.0 mi West 12.7 mph 18.4 mph N/A   Clear
1:45 PM 50.0 °F - 19.4 °F 30% 29.94 in 10.0 mi West 10.4 mph - N/A   Clear
2:05 PM 50.0 °F - 17.6 °F 28% 29.93 in 10.0 mi West 11.5 mph 19.6 mph N/A   Clear
2:25 PM 50.0 °F - 21.2 °F 32% 29.92 in 10.0 mi WSW 9.2 mph - N/A   Clear
2:45 PM 50.0 °F - 19.4 °F 30% 29.90 in 10.0 mi SW 9.2 mph 16.1 mph N/A   Clear
3:05 PM 50.0 °F - 17.6 °F 28% 29.89 in 10.0 mi WSW 13.8 mph 23.0 mph N/A   Clear
3:25 PM 50.0 °F - 19.4 °F 30% 29.87 in 10.0 mi West 10.4 mph 16.1 mph N/A   Clear
4:05 PM 51.8 °F - 19.4 °F 28% 29.86 in 10.0 mi WSW 11.5 mph 21.9 mph N/A   Clear
4:25 PM 51.8 °F - 17.6 °F 26% 29.85 in 10.0 mi WSW 11.5 mph 19.6 mph N/A   Clear
4:45 PM 51.8 °F - 21.2 °F 30% 29.84 in 10.0 mi SSW 11.5 mph 18.4 mph N/A   Clear
5:05 PM 50.0 °F - 19.4 °F 30% 29.84 in 10.0 mi South 12.7 mph 16.1 mph N/A   Clear
5:25 PM 50.0 °F - 23.0 °F 35% 29.83 in 10.0 mi South 8.1 mph 18.4 mph N/A   Clear
5:45 PM 50.0 °F - 23.0 °F 35% 29.83 in 10.0 mi SSE 10.4 mph 18.4 mph N/A   Clear
6:05 PM 46.4 °F 41.9 °F 23.0 °F 40% 29.82 in 10.0 mi South 9.2 mph - N/A   Clear
6:25 PM 46.4 °F 41.9 °F 23.0 °F 40% 29.82 in 10.0 mi South 9.2 mph - N/A   Clear
6:45 PM 46.4 °F 41.1 °F 24.8 °F 43% 29.81 in 10.0 mi SSE 11.5 mph 17.3 mph N/A   Clear
7:05 PM 46.4 °F 41.9 °F 24.8 °F 43% 29.81 in 10.0 mi SSE 9.2 mph - N/A   Clear
7:25 PM 44.6 °F 40.2 °F 23.0 °F 43% 29.81 in 10.0 mi SSE 8.1 mph - N/A   Clear
7:45 PM 42.8 °F 39.3 °F 26.6 °F 53% 29.80 in 10.0 mi SSE 5.8 mph - N/A   Clear
8:06 PM 41.0 °F 37.1 °F 28.4 °F 61% 29.80 in 10.0 mi SSE 5.8 mph - N/A   Scattered Clouds
8:26 PM 42.8 °F 38.0 °F 30.2 °F 61% 29.80 in 10.0 mi South 8.1 mph - N/A   Clear
8:46 PM 44.6 °F 39.2 °F 30.2 °F 57% 29.80 in 10.0 mi South 10.4 mph - N/A   Clear
9:06 PM 44.6 °F 39.7 °F 32.0 °F 61% 29.80 in 10.0 mi South 9.2 mph 16.1 mph N/A   Clear
9:26 PM 42.8 °F 37.5 °F 30.2 °F 61% 29.79 in 10.0 mi South 9.2 mph - N/A   Clear
9:46 PM 42.8 °F 38.0 °F 32.0 °F 66% 29.80 in 10.0 mi SSE 8.1 mph - N/A   Clear
10:06 PM 42.8 °F 38.0 °F 32.0 °F 66% 29.79 in 10.0 mi South 8.1 mph - N/A   Clear
10:26 PM 42.8 °F 39.3 °F 32.0 °F 66% 29.79 in 10.0 mi South 5.8 mph - N/A   Clear
10:46 PM 42.8 °F - 32.0 °F 66% 29.79 in 10.0 mi Calm Calm - N/A   Clear
11:06 PM 41.0 °F - 32.0 °F 70% 29.79 in 10.0 mi Calm Calm - N/A   Clear
11:26 PM 39.2 °F - 32.0 °F 75% 29.78 in 10.0 mi Calm Calm - N/A   Clear
11:46 PM 41.0 °F - 32.0 °F 70% 29.78 in 10.0 mi Calm Calm - N/A   Clear